Overview Statistics Trail Chart Weather Telemetry Raw packets
 

This is the latest recevied weather packets stored in our database for station/object SV1JSO-13. If no packets are shown the sender has not sent any weather packets the latest 10 day(s).

<< 101 102 103 104 105 106 107 >>
Time Temp. Humidity Pressure Rain* Wind** Luminosity Snow
1787902800 31.11° C 44% 1008.9 hPa 0 mm - 496 W/m² -
1787902500 31.11° C 48% 1008.8 hPa 0 mm - 485 W/m² -
1787902200 30.56° C 49% 1008.8 hPa 0 mm - 475 W/m² -
1787901900 30.56° C 48% 1008.8 hPa 0 mm - 465 W/m² -
1787901601 30° C 52% 1008.8 hPa 0 mm - 456 W/m² -
1787901300 30° C 51% 1008.8 hPa 0 mm - 441 W/m² -
1787901000 30.56° C 51% 1008.7 hPa 0 mm - 428 W/m² -
1787900700 30.56° C 50% 1008.8 hPa 0 mm - 413 W/m² -
1787900400 30.56° C 52% 1008.7 hPa 0 mm - 398 W/m² -
1787900100 30.56° C 53% 1008.6 hPa 0 mm - 383 W/m² -
1787899800 30.56° C 52% 1008.5 hPa 0 mm - 368 W/m² -
1787899500 30° C 55% 1008.6 hPa 0 mm - 355 W/m² -
1787899200 30° C 55% 1008.7 hPa 0 mm - 335 W/m² -
1787898900 30° C 53% 1008.7 hPa 0 mm - 323 W/m² -
1787898600 30.56° C 52% 1008.8 hPa 0 mm - 307 W/m² -
1787898300 31.11° C 48% 1008.8 hPa 0 mm - 292 W/m² -
1787898000 31.11° C 49% 1008.8 hPa 0 mm - 276 W/m² -
1787897700 31.11° C 49% 1008.9 hPa 0 mm - 264 W/m² -
1787897400 30.56° C 48% 1008.9 hPa 0 mm - 255 W/m² -
1787897100 30° C 49% 1008.9 hPa 0 mm - 239 W/m² -
1787896800 30.56° C 49% 1008.8 hPa 0 mm - 225 W/m² -
1787896500 30.56° C 50% 1008.7 hPa 0 mm - 214 W/m² -
1787896200 29.44° C 56% 1008.6 hPa 0 mm - 196 W/m² -
1787895900 29.44° C 56% 1008.6 hPa 0 mm - 181 W/m² -
1787895600 29.44° C 56% 1008.6 hPa 0 mm - 169 W/m² -

* Rain latest hour (hover to see other rain measurements)
** Current wind speed in m/s (hover to see current wind gust speed)